Location: Asheville, NC
(35.6000°N, 82.5500°W)
Time: 08:48:13
(UTC-05:00)

Tiangong 1 - Pass Details

Date: 10 February 2018
Orbit: 248 x 270 km, 42.8° (Epoch: 20 February)

Event Time Altitude Azimuth Distance (km) Brightness Sun altitude
Exits shadow 06:14:46 23° 346° (NNW) 607 1.8 -14.2°
Drops below altitude 10° 06:16:44 10° 42° (NE) 1,054 3.7 -13.8°
Sets 06:18:50 0° 58° (ENE) 1,871 5.4 -13.4°
